Ely, MN

8:29 AM CST on February 13, 2016 (GMT -0600)
Ely Municipal

Weather History for KELO - January, 2013

Change the Weather History Date:

Friday, January 25, 2013

  Actual Average Record
Temperature  
Mean Temperature 2 °F -  
Max Temperature 10 °F 17 °F 39 °F (2002)
Min Temperature -5 °F 0 °F -27 °F (2004)
Degree Days  
Heating Degree Days 62    
Moisture  
Dew Point 0 °F    
Average Humidity 79    
Maximum Humidity 92    
Minimum Humidity 67    
Precipitation  
Precipitation 0.01 in - - ()
Sea Level Pressure  
Sea Level Pressure 29.97 in    
Wind  
Wind Speed 6 mph (WNW)    
Max Wind Speed 13 mph    
Max Gust Speed 21 mph    
Visibility 6 miles    
Events Snow    
Averages and records for this station are not official NWS values.
T = Trace of Precipitation, MM = Missing Value Source: NWS Daily Summary

Daily Weather History Graph

Daily Weather History Graph

Search for Another Location

Airport or City:

Trip Planner

Search our weather history database for the weather conditions in past years. The results will help you decide how hot, cold, wet, or windy it might be!

Date:

Astronomy

Jan. 25, 2013 Rise Set
Actual Time 7:42 AM CST 4:57 PM CST
Civil Twilight 7:08 AM CST 5:31 PM CST
Nautical Twilight 6:31 AM CST 6:09 PM CST
Astronomical Twilight 5:54 AM CST 6:45 PM CST
Moon 3:55 PM CST (1/25) 6:23 AM CST (1/25)
Length of Visible Light 10h 22m
Length of Day
9h 15m
Waxing Gibbous, 98% of the Moon is Illuminated
Jan 25
Waxing Gibbous
Jan 26
Full
Feb 3
Last Quarter
Feb 10
New
Feb 17
First Quarter

Hourly Weather History & Observations

Time (CST) Temp. Windchill Dew Point Humidity Pressure Visibility Wind Dir Wind Speed Gust Speed Precip Events Conditions
12:13 AM 5.0 °F -9.1 °F -0.4 °F 78% 30.04 in 5.0 mi South 9.2 mph - N/A Snow Light Snow
12:33 AM 5.0 °F -10.0 °F 1.4 °F 85% 30.03 in 10.0 mi South 10.4 mph 16.1 mph N/A Snow Light Snow
12:53 AM 5.0 °F -11.6 °F -0.4 °F 78% 30.02 in 10.0 mi South 12.7 mph 17.3 mph N/A   Overcast
1:13 AM 6.8 °F -7.8 °F -0.4 °F 72% 30.01 in 10.0 mi SSW 10.4 mph 17.3 mph N/A   Overcast
1:33 AM 6.8 °F -5.9 °F -0.4 °F 72% 30.00 in 10.0 mi SSW 8.1 mph - N/A   Overcast
1:53 AM 5.0 °F -9.1 °F -0.4 °F 78% 29.99 in 4.0 mi SSW 9.2 mph 20.7 mph N/A Snow Light Snow
2:13 AM 5.0 °F -6.9 °F -0.4 °F 78% 29.98 in 3.0 mi South 6.9 mph - N/A Snow Light Snow
2:33 AM 5.0 °F -8.1 °F -0.4 °F 78% 29.97 in 1.8 mi South 8.1 mph - N/A Snow Light Snow
2:53 AM 5.0 °F -8.1 °F -0.4 °F 78% 29.95 in 1.8 mi South 8.1 mph - N/A Snow Light Snow
3:13 AM 5.0 °F -6.9 °F -0.4 °F 78% 29.93 in 10.0 mi South 6.9 mph - N/A Snow Light Snow
3:33 AM 5.0 °F -4.1 °F -0.4 °F 78% 29.92 in 7.0 mi South 4.6 mph - N/A Snow Light Snow
3:53 AM 5.0 °F -5.6 °F -0.4 °F 78% 29.90 in 5.0 mi South 5.8 mph - N/A Snow Light Snow
4:13 AM 5.0 °F -6.9 °F -0.4 °F 78% 29.89 in 4.0 mi South 6.9 mph - N/A Snow Light Snow
4:32 AM 5.0 °F -6.9 °F -0.4 °F 78% 29.87 in 5.0 mi South 6.9 mph - N/A Snow Light Snow
4:53 AM 5.0 °F -6.9 °F -0.4 °F 78% 29.86 in 5.0 mi South 6.9 mph - N/A Snow Light Snow
5:13 AM 5.0 °F -6.9 °F 1.4 °F 85% 29.86 in 3.0 mi South 6.9 mph - N/A Snow Light Snow
5:33 AM 5.0 °F -5.6 °F 1.4 °F 85% 29.85 in 2.0 mi South 5.8 mph - N/A Snow Light Snow
5:53 AM 5.0 °F -2.1 °F 1.4 °F 85% 29.84 in 2.5 mi South 3.5 mph - N/A Snow Light Snow
6:13 AM 5.0 °F - 1.4 °F 85% 29.84 in 4.0 mi Calm Calm - N/A Snow Light Snow
6:32 AM 5.0 °F -4.1 °F 1.4 °F 85% 29.83 in 4.0 mi South 4.6 mph - 0.01 in Snow Light Snow
6:53 AM 5.0 °F -2.1 °F 1.4 °F 85% 29.82 in 3.0 mi SSE 3.5 mph - 0.01 in Snow Light Snow
7:12 AM 5.0 °F - 1.4 °F 85% 29.82 in 4.0 mi Calm Calm - N/A Snow Light Snow
7:33 AM 5.0 °F - 1.4 °F 85% 29.82 in 4.0 mi Calm Calm - N/A Snow Light Snow
7:53 AM 5.0 °F - 1.4 °F 85% 29.82 in 1.5 mi Calm Calm - N/A Snow Light Snow
8:13 AM 5.0 °F - 1.4 °F 85% 29.83 in 1.2 mi Calm Calm - N/A Snow Light Snow
8:33 AM 6.8 °F - 1.4 °F 79% 29.83 in 1.2 mi Calm Calm - N/A Snow Light Snow
8:53 AM 5.0 °F - 1.4 °F 85% 29.83 in 2.0 mi Calm Calm - N/A Snow Light Snow
9:13 AM 6.8 °F - 1.4 °F 79% 29.84 in 3.0 mi Calm Calm - N/A Snow Light Snow
9:33 AM 6.8 °F - 1.4 °F 79% 29.85 in 4.0 mi Calm Calm - N/A Snow Light Snow
9:53 AM 6.8 °F -0.1 °F 1.4 °F 79% 29.85 in 7.0 mi NE 3.5 mph - N/A Snow Light Snow
10:13 AM 6.8 °F - 3.2 °F 85% 29.86 in 10.0 mi Calm Calm - N/A   Scattered Clouds
10:33 AM 8.6 °F 0.1 °F 1.4 °F 73% 29.86 in 10.0 mi North 4.6 mph - N/A   Scattered Clouds
10:53 AM 8.6 °F -2.6 °F 1.4 °F 73% 29.87 in 10.0 mi NW 6.9 mph - N/A   Scattered Clouds
11:13 AM 8.6 °F 2.0 °F 1.4 °F 73% 29.87 in 10.0 mi North 3.5 mph - N/A   Mostly Cloudy
11:33 AM 10.4 °F 0.8 °F 1.4 °F 67% 29.87 in 10.0 mi NW 5.8 mph - N/A   Mostly Cloudy
11:53 AM 10.4 °F -1.5 °F 3.2 °F 73% 29.88 in 7.0 mi NW 8.1 mph - N/A   Overcast
12:13 PM 8.6 °F -3.7 °F 3.2 °F 79% 29.89 in 5.0 mi NW 8.1 mph - N/A   Haze
12:32 PM 10.4 °F 2.2 °F 3.2 °F 73% 29.89 in 1.5 mi NNW 4.6 mph - N/A Snow Light Snow
12:53 PM 10.4 °F -2.4 °F 3.2 °F 73% 29.90 in 5.0 mi NW 9.2 mph - N/A Snow Light Snow
1:13 PM 8.6 °F 0.1 °F 3.2 °F 79% 29.91 in 3.0 mi North 4.6 mph 17.3 mph N/A Snow Light Snow
1:32 PM 8.6 °F -2.6 °F 1.4 °F 73% 29.92 in 10.0 mi North 6.9 mph - N/A   Overcast
1:53 PM 10.4 °F -1.5 °F 1.4 °F 67% 29.92 in 7.0 mi NW 8.1 mph - N/A   Overcast
2:13 PM 8.6 °F -3.7 °F 1.4 °F 73% 29.94 in 3.0 mi NNW 8.1 mph 16.1 mph N/A Snow Light Snow
2:32 PM 8.6 °F -7.0 °F 1.4 °F 73% 29.95 in 2.0 mi NW 12.7 mph 17.3 mph N/A Snow Light Snow
2:53 PM 8.6 °F -3.7 °F 1.4 °F 73% 29.96 in 5.0 mi NNW 8.1 mph - N/A Snow Light Snow
3:12 PM 8.6 °F -2.6 °F 3.2 °F 79% 29.97 in 3.0 mi NW 6.9 mph - N/A Snow Light Snow
3:33 PM 8.6 °F 0.1 °F 1.4 °F 73% 29.98 in 10.0 mi NNW 4.6 mph - N/A   Overcast
3:53 PM 8.6 °F 0.1 °F 1.4 °F 73% 29.99 in 7.0 mi NNW 4.6 mph - N/A   Overcast
4:12 PM 8.6 °F -1.3 °F 1.4 °F 73% 30.00 in 5.0 mi NW 5.8 mph - N/A Snow Light Snow
4:33 PM 8.6 °F -1.3 °F 1.4 °F 73% 30.02 in 7.0 mi NW 5.8 mph - N/A Snow Light Snow
4:53 PM 8.6 °F -1.3 °F 3.2 °F 79% 30.03 in 2.0 mi NW 5.8 mph - N/A Snow Light Snow
5:12 PM 6.8 °F -7.8 °F 1.4 °F 79% 30.04 in 3.0 mi NW 10.4 mph - N/A Snow Light Snow
5:33 PM 6.8 °F -7.8 °F 1.4 °F 79% 30.05 in 3.0 mi NW 10.4 mph 18.4 mph N/A Snow Light Snow
5:53 PM 6.8 °F -4.8 °F 1.4 °F 79% 30.06 in 7.0 mi NNW 6.9 mph - N/A Snow Light Snow
6:13 PM 5.0 °F -6.9 °F -0.4 °F 78% 30.06 in 10.0 mi NNW 6.9 mph - N/A   Scattered Clouds
6:33 PM 3.2 °F -11.3 °F -0.4 °F 85% 30.08 in 10.0 mi NNW 9.2 mph - N/A   Clear
6:52 PM 3.2 °F -9.1 °F -2.2 °F 78% 30.09 in 10.0 mi NNW 6.9 mph - N/A   Clear
7:13 PM 3.2 °F -9.1 °F -2.2 °F 78% 30.09 in 10.0 mi NNW 6.9 mph - N/A   Clear
7:33 PM 3.2 °F -9.1 °F -2.2 °F 78% 30.11 in 10.0 mi NW 6.9 mph - N/A   Clear
7:53 PM 1.4 °F -11.3 °F -2.2 °F 85% 30.12 in 10.0 mi NW 6.9 mph - N/A   Clear
8:13 PM 1.4 °F -6.2 °F -2.2 °F 85% 30.11 in 10.0 mi NNW 3.5 mph - N/A   Clear
8:33 PM 1.4 °F -6.2 °F -2.2 °F 85% 30.12 in 10.0 mi NNW 3.5 mph - N/A   Clear
8:53 PM -0.4 °F -8.3 °F -4.0 °F 85% 30.12 in 10.0 mi NNW 3.5 mph - N/A   Clear
9:13 PM -0.4 °F -10.4 °F -4.0 °F 85% 30.12 in 10.0 mi NW 4.6 mph - N/A   Clear
9:33 PM -0.4 °F -8.3 °F -4.0 °F 85% 30.12 in 10.0 mi NNW 3.5 mph - N/A   Clear
9:53 PM -2.2 °F -10.4 °F -5.8 °F 85% 30.13 in 10.0 mi NNW 3.5 mph - N/A   Clear
10:13 PM -2.2 °F -12.5 °F -5.8 °F 85% 30.14 in 10.0 mi NNW 4.6 mph - N/A   Clear
10:33 PM -2.2 °F -10.4 °F -5.8 °F 85% 30.15 in 10.0 mi NW 3.5 mph - N/A   Clear
10:53 PM -2.2 °F - -5.8 °F 85% 30.17 in 10.0 mi Calm Calm - N/A   Clear
11:12 PM -4.0 °F - -7.6 °F 85% 30.17 in 10.0 mi Calm Calm - N/A Snow Light Snow
11:33 PM -5.8 °F - -7.6 °F 92% 30.18 in 10.0 mi Calm Calm - N/A   Clear
11:53 PM -5.8 °F - -9.4 °F 84% 30.19 in 10.0 mi Calm Calm - N/A   Clear